Weather observations for the past three days for
March Air Reserve Base
Imperial (Metric)
Date Time (pdt) Wind (mph) Vis. (mi.) Weather Sky Cond. Temperature (ºF) Relative Humidity Wind Chill (°F) Heat Index (°F) Pressure Precipitation (in)
Air Dwpt 6 hour altimeter (in) sea level (mb) 1 hr 3 hr 6 hr
Max. Min.
01 11:55 E 3 10.00 Fair CLR 84.6 39 20% 82 29.98 1013.8
01 10:55 Calm 10.00 Fair CLR 80.6 43.5 80.6 57.4 27% 79 30 1014.6
01 09:55 Calm 10.00 Fair CLR 77 48.7 37% 78 29.99 1014.2
01 08:55 Calm 10.00 Fair CLR 72.3 49.8 45% 29.99 1014.4
01 07:55 Calm 10.00 Fair CLR 68.2 50.4 53% 29.98 1014.0
01 06:55 SE 3 10.00 Fair CLR 59.2 52.3 78% 29.96 1013.4
01 05:55 Calm 10.00 Fair CLR 60.6 52.7 75% 29.95 1012.9
01 04:55 Calm 10.00 Fair CLR 60.3 53.1 70.3 59.5 77% 29.95 1012.8
01 03:55 Calm 10.00 Fair CLR 61.5 52.3 72% 29.96 1013.2
01 02:55 Calm 10.00 Fair CLR 63.3 52.2 67% 29.95 1012.8
01 01:55 Calm 10.00 Fair CLR 65.3 52.3 63% 29.95 1012.8
01 00:55 Calm 10.00 Fair CLR 67.6 54.1 62% 29.96 1013.0
31 23:55 NW 5 10.00 Fair CLR 68.7 52.3 56% 29.95 1012.8
31 22:55 S 3 10.00 Fair CLR 70.5 52.5 88.5 70.5 53% 29.95 1012.8
31 21:55 Calm 10.00 Fair CLR 73.2 50.5 45% 29.94 1012.5
31 20:55 NW 5 10.00 Fair CLR 73 49.8 44% 29.93 1012.2
31 19:55 NW 8 10.00 Fair CLR 75.7 49.6 40% 78 29.91 1011.6
31 18:55 NW 8 10.00 Fair CLR 80.6 54 40% 80 29.88 1010.5
31 17:55 NW 13 10.00 Fair CLR 85.5 50.5 30% 83 29.88 1010.5
31 15:55 NW 13 10.00 Fair CLR 89.8 56.8 33% 88 29.88 1010.3
31 14:55 NW 12 G 18 10.00 Fair CLR 91 57.9 33% 90 29.89 1010.6
31 13:55 NW 8 10.00 Fair CLR 88.9 56.8 34% 87 29.91 1011.3
31 12:55 W 8 10.00 Fair CLR 87.8 55 33% 86 29.92 1011.7
31 11:55 NW 3 10.00 Fair CLR 86.5 51.4 30% 84 29.93 1012.0
31 10:55 W 3 10.00 Fair CLR 83.5 55.2 84.9 64.6 38% 83 29.94 1012.4
31 09:55 Calm 10.00 Fair CLR 77.4 59.9 55% 79 29.94 1012.5
31 08:55 Calm 9.00 Fair CLR 73 61.9 68% 29.94 1012.4
31 07:55 Calm 10.00 Fair CLR 69.4 62.2 78% 29.93 1012.1
31 06:55 SE 3 10.00 Fair CLR 66 61.7 86% 29.92 1011.8
31 05:55 SE 6 10.00 Fair CLR 64.8 59.5 83% 29.9 1011.1
31 04:55 Calm 10.00 Fair CLR 66.9 59.9 74.1 66.4 78% 29.9 1010.9
31 03:55 SE 3 10.00 Fair CLR 66.6 59.5 78% 29.9 1010.9
31 02:55 Calm 10.00 Fair CLR 68.2 59.2 73% 29.9 1010.8
31 01:55 SE 3 10.00 Fair CLR 69.1 60.4 74% 29.9 1010.8
31 00:55 Calm 10.00 Fair CLR 70 60.1 71% 29.91 1011.2
30 23:55 Calm 10.00 Fair CLR 73.2 60.8 65% 29.91 1011.1
30 22:55 NW 5 10.00 Fair CLR 73.9 61.3 93.4 73.8 65% 29.9 1010.8
30 21:55 Calm 10.00 Fair CLR 75 60.6 61% 77 29.9 1010.9
30 20:55 Calm 10.00 Fair CLR 79.2 56.5 46% 80 29.88 1010.2
30 18:55 NW 9 10.00 Fair CLR 85.8 56.5 37% 85 29.84 1008.9
30 17:55 NW 12 10.00 Fair CLR 90.5 56.5 32% 89 29.84 1008.9
30 16:55 NW 13 10.00 Fair CLR 93.4 58.1 97.5 91 31% 92 29.83 1008.4
30 15:55 NW 15 10.00 Fair CLR 93.4 59.9 33% 93 29.84 1008.8
30 14:55 NW 13 10.00 Fair CLR 96.8 58.3 28% 96 29.85 1009.0
30 13:55 NW 10 10.00 Fair CLR 97.3 54.5 24% 95 29.87 1009.7
30 12:55 NW 3 10.00 Fair CLR 94.5 56.3 28% 93 29.88 1010.0
30 11:55 S 5 10.00 Fair CLR 94.3 50.7 23% 91 29.89 1010.3
30 10:55 S 3 10.00 Fair CLR 91.2 53.4 91.2 68.7 28% 89 29.91 1011.0
30 09:55 SE 8 10.00 Fair CLR 86.2 56.1 36% 85 29.91 1011.1
30 08:55 SE 3 10.00 Fair CLR 80.8 58.6 47% 81 29.91 1011.2
30 06:55 Calm 10.00 Fair CLR 72 60.4 67% 29.91 1011.2
30 05:55 Calm 10.00 Fair CLR 68.9 59 71% 29.89 1010.5
30 04:55 Calm 10.00 Fair CLR 72.9 59 80.2 71.4 62% 29.88 1010.0
30 03:55 NW 5 10.00 Fair CLR 71.8 58.5 63% 29.88 1010.0
30 02:55 Calm 10.00 Fair CLR 74.8 58.6 57% 29.88 1009.9
30 01:55 SE 5 10.00 Fair CLR 74.8 58.6 57% 29.87 1009.6
30 00:55 S 5 10.00 Fair CLR 76.5 59 55% 78 29.88 1009.9
29 23:55 S 3 10.00 Fair CLR 79.7 58.3 48% 80 29.88 1009.9
29 22:55 W 3 10.00 Fair CLR 80.2 59.4 97.9 80.1 49% 81 29.88 1009.9
29 21:55 NW 5 10.00 Fair CLR 81.3 59.2 47% 82 29.88 1010.0
29 20:55 NW 10 10.00 Fair CLR 83.5 58.6 43% 83 29.87 1009.7
29 19:55 N 8 10.00 Fair CLR 87.3 56.3 35% 86 29.84 1008.7
29 18:55 NW 9 10.00 Fair CLR 91.8 52 26% 89 29.83 1008.4
29 17:55 NW 14 10.00 Fair CLR 95.4 51.6 23% 93 29.84 1008.7
29 16:55 NW 14 10.00 Fair CLR 97.7 52.3 101.1 94.5 22% 95 29.83 1008.2
29 15:55 NW 15 10.00 Fair CLR 99.1 52.3 21% 97 29.84 1008.6
29 14:55 NW 16 10.00 Fair CLR 100.6 55.9 23% 99 29.86 1009.2
29 13:55 NW 14 10.00 Fair CLR 101.1 55.2 22% 100 29.87 1009.5
29 12:55 E 7 10.00 Fair CLR 98.8 52 21% 96 29.88 1009.9
Date Time (pdt) Wind (mph) Vis. (mi.) Weather Sky Cond. Air Dwpt Max. Min. Relative Humidity Wind Chill (°F) Heat Index (°F) altimeter (in) sea level (mb) 1 hr 3 hr 6 hr
6 hour
Temperature (ºF) Pressure Precipitation (in)